Overview Statistics Trail Chart Weather Telemetry Raw packets
 

This is the latest recevied weather packets stored in our database for station/object K6CEG. If no packets are shown the sender has not sent any weather packets the latest 10 day(s).

<< 84 85 86 87 88 89 90 >>
Time Temp. Humidity Pressure Rain* Wind** Luminosity Snow
1788059128 27.22° C 55% 1012.3 hPa 0 mm - 0 W/m² -
1788058823 27.78° C 54% 1012.1 hPa 0 mm - 0 W/m² -
1788058522 27.78° C 54% 1012 hPa 0 mm - 0 W/m² -
1788058221 27.78° C 54% 1012.3 hPa 0 mm - 0 W/m² -
1788057916 28.33° C 53% 1012.1 hPa 0 mm - 0 W/m² -
1788057615 28.33° C 52% 1012.1 hPa 0 mm - 0 W/m² -
1788057313 28.89° C 50% 1012.1 hPa 0 mm - 0 W/m² -
1788057008 28.89° C 46% 1012 hPa 0 mm - 0 W/m² -
1788056702 29.44° C 45% 1011.8 hPa 0 mm - 0 W/m² -
1788056397 30° C 44% 1011.8 hPa 0 mm - 2 W/m² -
1788056092 30.56° C 44% 1011.6 hPa 0 mm - 3 W/m² -
1788055792 30.56° C 43% 1011.7 hPa 0 mm - 5 W/m² -
1788055486 30.56° C 42% 1011.8 hPa 0 mm - 7 W/m² -
1788055182 31.11° C 43% 1011.6 hPa 0 mm - 9 W/m² -
1788054882 31.67° C 41% 1011.4 hPa 0 mm - 13 W/m² -
1788054577 31.67° C 38% 1011.8 hPa 0 mm - 18 W/m² -
1788054273 31.67° C 37% 1011.6 hPa 0 mm - 23 W/m² -
1788053969 31.67° C 36% 1011.7 hPa 0 mm - 26 W/m² -
1788053664 31.67° C 36% 1011.7 hPa 0 mm - 20 W/m² -
1788053359 32.22° C 37% 1011.8 hPa 0 mm - 22 W/m² -
1788053055 32.22° C 37% 1011.8 hPa 0 mm - 24 W/m² -
1788052751 32.78° C 36% 1011.7 hPa 0 mm - 27 W/m² -
1788052446 32.78° C 37% 1011.8 hPa 0 mm - 57 W/m² -
1788052146 32.78° C 35% 1011.9 hPa 0 mm - 51 W/m² -
1788051840 32.78° C 35% 1011.7 hPa 0 mm - 39 W/m² -

* Rain latest hour (hover to see other rain measurements)
** Current wind speed in m/s (hover to see current wind gust speed)